Total_Precipitation_Accumulation
1.87 2.08 2.05 1.95 1.95 1.98 2.17 2.41 2.53 2.33 2.09 1.88 1.68 1.53 1.62 1.75 1.80 1.56 1.48 1.65 1.49 1.27 1.19 1.16 1.15 1.17 1.22 1.26 1.31 1.42 1.49 1.58 1.71 1.91 2.26 2.68 3.05 3.45
1.99 2.11 2.11 2.08 2.10 2.02 2.13 2.35 2.53 2.56 2.23 1.83 1.73 1.63 1.63 1.46 1.60 1.42 1.36 1.48 1.36 1.25 1.19 1.13 1.08 1.10 1.12 1.12 1.09 1.10 1.14 1.17 1.20 1.26 1.37 1.53 1.75 2.05
2.04 2.19 2.27 2.42 2.41 2.28 2.27 2.26 2.33 2.46 2.24 1.88 1.75 1.70 1.57 1.40 1.37 1.28 1.20 1.19 1.16 1.26 1.18 1.06 0.95 0.92 0.97 0.99 1.00 0.98 0.95 0.94 0.98 1.02 1.07 1.15 1.23 1.34
2.24 2.41 2.45 2.47 2.41 2.30 2.34 2.30 2.27 2.44 2.32 2.00 1.89 1.77 1.65 1.48 1.40 1.34 1.18 1.10 1.13 1.35 1.29 1.11 0.99 0.94 0.93 0.89 0.85 0.84 0.89 0.90 0.92 0.92 0.95 1.00 1.04 1.08
2.24 2.29 2.27 2.36 2.30 2.26 2.17 2.14 2.16 2.34 2.45 2.20 2.10 2.08 1.92 1.72 1.60 1.46 1.33 1.30 1.11 1.15 1.17 1.09 1.04 0.96 0.90 0.87 0.86 0.84 0.81 0.79 0.80 0.84 0.88 0.94 0.97 0.98
2.12 2.19 2.25 2.25 2.29 2.37 2.27 2.26 2.36 2.48 2.55 2.45 2.33 2.38 2.27 2.04 1.84 1.63 1.47 1.37 1.25 1.03 1.09 1.10 1.07 0.98 0.90 0.84 0.81 0.80 0.81 0.80 0.78 0.80 0.81 0.83 0.91 1.00
2.03 1.99 2.08 2.25 2.33 2.36 2.18 2.25 2.39 2.38 2.36 2.37 2.32 2.42 2.39 2.24 1.93 1.68 1.58 1.54 1.42 1.23 1.14 1.02 1.03 1.00 0.97 0.96 0.94 0.91 0.85 0.85 0.84 0.83 0.83 0.87 0.93 1.05
1.97 1.87 1.79 1.81 1.90 2.02 2.03 2.01 2.06 2.13 2.20 2.22 2.24 2.30 2.31 2.21 2.03 1.84 1.74 1.63 1.53 1.47 1.48 1.40 1.26 1.25 1.14 1.01 1.05 1.00 0.94 0.90 0.88 0.87 0.88 0.89 0.93 1.06
1.62 1.59 1.40 1.32 1.59 1.68 1.84 1.82 1.71 1.70 1.75 1.91 2.02 2.02 2.16 2.21 2.19 1.97 1.91 1.81 1.63 1.60 1.63 1.61 1.51 1.38 1.18 1.13 1.23 1.07 1.00 0.96 0.94 0.95 0.94 0.90 0.87 0.88
1.40 1.36 1.37 1.37 1.45 1.59 1.63 1.60 1.54 1.50 1.51 1.52 1.60 1.80 2.00 2.18 2.20 2.11 2.09 1.95 1.74 1.62 1.62 1.61 1.50 1.42 1.25 1.18 1.22 1.10 1.01 0.96 0.94 1.01 1.11 1.10 0.95 0.89
1.50 1.55 1.57 1.44 1.50 1.48 1.46 1.43 1.41 1.46 1.49 1.47 1.47 1.64 1.83 1.96 2.14 2.13 2.05 1.94 1.73 1.62 1.60 1.54 1.48 1.51 1.41 1.25 1.12 1.06 0.89 0.81 0.78 0.80 0.94 1.19 1.29 1.11
1.78 1.67 1.60 1.43 1.37 1.32 1.30 1.34 1.28 1.31 1.45 1.46 1.42 1.49 1.63 1.77 1.97 1.96 1.88 1.89 1.72 1.57 1.44 1.45 1.44 1.50 1.49 1.27 1.08 0.94 0.85 0.81 0.75 0.75 0.91 1.23 1.39 1.22
1.79 1.71 1.62 1.48 1.30 1.27 1.21 1.19 1.21 1.30 1.38 1.41 1.47 1.55 1.68 1.80 1.83 1.84 1.86 1.78 1.73 1.50 1.29 1.39 1.39 1.35 1.31 1.19 1.04 0.93 0.85 0.79 0.74 0.74 0.83 1.08 1.34 1.29
1.92 1.83 1.75 1.61 1.36 1.28 1.14 1.12 1.16 1.12 1.19 1.30 1.36 1.46 1.58 1.73 1.86 1.94 1.96 1.84 1.69 1.54 1.48 1.49 1.43 1.37 1.30 1.18 1.06 0.93 0.91 0.86 0.81 0.79 0.79 0.94 1.04 1.28
1.97 2.03 1.85 1.67 1.46 1.31 1.26 1.22 1.14 1.05 1.17 1.28 1.26 1.30 1.41 1.60 1.89 2.08 2.16 2.11 1.84 1.54 1.44 1.41 1.36 1.36 1.37 1.20 1.03 0.92 0.90 0.91 0.85 0.84 0.86 0.89 0.98 1.17
1.91 1.95 1.81 1.66 1.47 1.33 1.32 1.23 1.08 1.05 1.14 1.23 1.28 1.34 1.46 1.58 1.74 1.92 2.13 2.17 1.97 1.55 1.40 1.38 1.37 1.42 1.36 1.23 1.12 0.98 0.89 0.91 0.91 0.93 1.01 1.03 1.11 1.22
1.97 2.00 1.92 1.81 1.68 1.55 1.47 1.44 1.40 1.32 1.24 1.24 1.38 1.43 1.45 1.44 1.51 1.65 1.90 2.01 1.86 1.48 1.29 1.32 1.42 1.49 1.48 1.46 1.32 1.10 1.01 0.93 0.92 1.05 1.18 1.17 1.14 1.13
1.75 1.90 1.93 1.83 1.74 1.69 1.66 1.61 1.55 1.44 1.36 1.34 1.36 1.41 1.40 1.41 1.45 1.54 1.67 1.78 1.73 1.53 1.38 1.29 1.41 1.53 1.49 1.39 1.22 1.08 1.02 1.01 1.01 1.14 1.19 1.17 1.09 1.04
1.50 1.68 1.70 1.66 1.63 1.64 1.64 1.58 1.49 1.46 1.48 1.42 1.35 1.39 1.44 1.44 1.46 1.54 1.60 1.69 1.72 1.68 1.56 1.46 1.46 1.49 1.37 1.12 0.97 0.95 0.99 1.02 1.10 1.16 1.16 1.11 1.02 0.99
1.34 1.45 1.48 1.51 1.57 1.62 1.63 1.61 1.54 1.53 1.56 1.53 1.49 1.51 1.59 1.59 1.55 1.55 1.62 1.66 1.71 1.74 1.70 1.54 1.40 1.35 1.27 1.13 1.03 0.90 0.87 0.97 1.08 1.10 1.11 1.14 1.09 1.12
1.30 1.40 1.46 1.48 1.53 1.61 1.63 1.62 1.61 1.63 1.61 1.61 1.60 1.60 1.69 1.75 1.63 1.54 1.58 1.68 1.67 1.70 1.65 1.48 1.38 1.48 1.54 1.55 1.31 0.97 0.88 0.92 0.99 1.08 1.16 1.26 1.25 1.27
1.44 1.44 1.52 1.55 1.54 1.54 1.57 1.58 1.59 1.60 1.59 1.57 1.61 1.67 1.71 1.73 1.62 1.59 1.58 1.65 1.61 1.56 1.56 1.60 1.74 1.82 1.72 1.59 1.31 1.11 1.06 1.05 1.07 1.08 1.06 1.09 1.09 1.08
1.49 1.48 1.49 1.45 1.44 1.48 1.50 1.50 1.56 1.58 1.57 1.57 1.62 1.67 1.68 1.67 1.61 1.60 1.59 1.60 1.65 1.67 1.74 1.80 1.89 1.85 1.66 1.53 1.40 1.29 1.25 1.24 1.21 1.17 1.12 1.05 0.93 0.85